Wind_Speed
19 17 12 13 15 13 17 19 20 23 28 29 31 28 28 28 26 22 20 16 14 12 10 8 8 8 8 7 7 8 8 7 9 8 4 5 6 9 11 13 15 18 19 20 20
19 15 18 16 15 19 20 23 24 26 26 28 28 27 26 26 24 21 19 16 13 11 10 9 10 8 6 6 7 7 8 8 6 5 6 8 10 12 14 15 17 18 19 19 19
23 23 24 23 23 23 25 25 25 25 26 27 25 25 25 24 22 20 18 15 12 10 9 9 7 6 6 7 7 8 8 7 8 8 9 11 13 15 14 16 18 16 14 15 17
24 26 24 25 26 28 27 26 26 25 27 26 24 23 22 21 14 17 15 13 10 8 7 7 6 6 6 7 7 6 5 6 8 9 11 14 15 14 15 18 15 12 11 12 14
23 24 25 26 28 28 27 27 26 26 26 24 22 21 19 16 12 14 12 9 6 5 5 5 5 5 6 4 3 4 5 7 10 12 13 13 13 15 14 11 12 13 14 15 17
20 21 22 24 25 25 25 24 24 24 22 20 19 17 16 10 11 10 8 5 3 3 4 4 4 4 4 4 5 6 8 10 12 13 11 10 13 11 11 8 12 15 17 16 16
19 19 20 21 21 21 21 21 20 19 17 15 13 11 10 7 7 7 5 3 2 3 4 5 5 5 4 5 7 6 9 10 10 7 11 12 10 7 11 12 17 18 17 15 15
16 16 17 18 18 18 19 18 16 15 13 12 11 9 7 6 7 5 5 4 4 6 6 6 6 6 6 7 8 8 8 3 5 9 9 11 6 10 13 22 20 17 17 13 13
15 14 14 15 15 15 15 15 14 13 12 12 10 7 7 7 6 5 5 5 6 6 7 7 7 7 7 7 7 4 4 6 6 8 10 10 10 13 18 21 21 14 10 9 9
12 11 11 11 11 12 12 11 11 10 10 10 8 6 7 6 5 4 4 4 4 6 6 6 6 5 6 5 3 4 5 6 7 9 9 13 14 19 20 18 14 11 10 8 9
10 10 9 9 9 9 10 10 10 10 8 5 7 5 6 5 4 3 2 3 3 3 4 4 4 4 4 4 3 5 6 8 10 8 17 17 20 22 20 12 12 11 10 8 9
9 7 7 7 7 8 10 9 10 12 12 11 8 6 4 2 2 2 2 1 1 2 1 3 4 2 2 4 5 6 7 8 7 15 20 20 20 17 11 5 9 11 11 9 9
16 8 6 7 6 7 6 11 11 9 8 9 9 6 4 5 4 2 1 1 2 2 3 3 2 1 3 4 5 6 5 11 15 18 19 15 12 6 5 8 10 11 9 10 9
16 14 8 6 8 9 8 8 4 5 3 3 2 2 2 4 2 1 1 1 2 2 2 2 1 3 5 3 5 6 10 15 17 18 8 17 5 10 11 12 12 11 11 12 13
12 13 12 9 5 6 6 7 3 3 3 1 1 1 2 4 2 1 1 2 3 1 2 3 3 4 1 1 6 6 14 15 20 16 12 8 4 5 10 13 12 12 14 15 14
9 9 9 8 7 4 3 5 4 3 2 3 2 0 3 3 1 1 2 3 2 2 3 2 3 2 2 2 8 11 14 18 11 9 1 1 2 5 8 10 12 14 15 15 15
6 6 6 6 6 4 1 2 3 3 4 4 1 1 3 3 3 2 5 4 3 2 4 6 3 4 4 4 8 13 11 6 4 3 2 1 8 11 9 10 12 16 16 15 15
7 5 4 3 5 5 4 3 3 2 2 3 2 4 4 3 3 5 6 5 5 2 3 2 4 3 3 7 10 9 7 1 4 2 5 16 8 4 7 14 17 17 17 16 16
9 8 7 7 4 4 5 2 1 2 2 2 5 4 4 4 5 6 5 5 1 2 2 4 3 4 9 9 6 5 4 3 4 5 3 5 7 11 16 15 17 19 19 18 20
9 10 8 8 7 7 5 4 3 5 5 6 4 3 3 5 7 4 5 4 4 5 9 4 5 7 6 5 8 6 5 2 2 0 4 6 10 13 11 14 17 20 21 22 23
10 11 9 9 9 9 7 7 8 8 9 5 5 7 8 9 8 7 5 6 8 5 5 8 6 5 10 6 10 10 8 4 4 5 4 3 6 5 11 16 18 21 22 24 26
11 12 10 11 13 10 10 11 13 14 12 11 11 11 9 9 9 7 7 7 9 11 11 12 8 8 11 16 13 11 11 9 5 4 8 8 20 23 23 20 20 22 24 27 31
15 15 14 13 12 12 15 16 14 13 13 13 10 11 14 15 8 6 9 10 10 10 7 12 5 7 6 6 5 5 6 10 12 16 21 10 12 10 8 16 18 21 25 31 35
16 12 15 14 16 15 14 12 14 14 15 15 15 16 16 15 15 10 13 10 12 16 17 17 16 18 17 19 23 27 29 27 23 21 30 38 50 43 42 39 41 44 48 47 37
16 17 15 14 15 16 18 17 19 20 20 18 18 16 15 16 16 15 16 17 17 15 16 16 22 23 29 30 31 35 34 34 37 41 37 58 43 50 47 45 34 26 25 27 29
17 18 18 18 18 18 18 20 20 19 18 19 18 16 16 17 17 20 21 20 20 21 21 23 23 27 37 33 33 36 35 38 40 41 45 46 49 31 18 26 29 26 25 24 23
19 19 20 21 21 19 19 18 18 19 18 18 18 18 17 18 20 22 24 25 25 26 26 28 26 20 18 18 16 24 24 15 18 19 22 26 25 28 32 29 26 26 26 25 24
Wind_Direction
94 100 121 137 80 87 112 123 131 142 143 147 143 150 150 147 149 151 148 150 152 159 171 180 201 217 234 253 261 258 261 278 284 287 284 287 286 286 292 295 296 300 300 303 307
92 95 98 108 118 109 118 120 132 137 143 139 141 146 145 146 149 151 149 154 160 171 183 202 220 237 253 257 260 270 274 280 271 271 280 288 288 290 297 298 294 297 303 307 309
96 98 101 106 110 117 116 122 130 131 137 131 139 143 148 148 150 154 154 165 172 182 205 227 240 256 262 265 271 274 275 263 264 281 287 285 296 296 299 295 298 299 302 308 315
97 105 111 114 113 112 116 121 121 134 127 131 139 145 149 148 149 161 161 173 181 201 229 247 257 262 274 275 271 265 252 264 283 289 289 291 299 302 304 300 299 301 306 308 318
87 97 104 109 110 111 114 118 128 125 125 133 141 147 148 149 157 163 170 180 199 228 249 260 268 277 270 267 253 259 273 279 283 291 297 302 300 306 308 313 314 318 318 319 321
80 91 99 104 108 114 120 122 121 120 125 134 144 148 150 139 157 170 175 181 197 239 253 260 253 244 251 252 254 266 277 281 289 297 300 311 308 310 319 332 328 316 315 312 318
80 85 97 105 109 111 111 111 110 117 126 134 140 145 151 149 145 161 168 173 196 235 245 231 222 227 243 262 265 273 285 288 293 291 309 319 313 312 324 320 327 314 309 308 319
82 89 93 98 102 102 100 101 109 118 125 130 132 138 143 139 142 150 165 184 204 217 223 228 236 248 254 261 276 288 291 288 290 298 306 320 327 314 320 311 314 294 289 302 311
65 75 83 90 95 99 105 112 118 125 133 136 142 141 137 141 157 170 183 198 214 226 237 244 250 257 265 277 289 286 281 293 299 295 306 326 328 314 310 309 304 292 264 283 304
69 73 80 90 98 107 112 117 122 129 137 140 141 128 143 143 155 169 193 212 231 244 249 257 262 269 276 286 267 277 295 296 301 303 303 316 318 311 307 297 278 263 245 265 302
70 79 85 93 97 106 118 125 124 125 132 143 143 130 142 147 155 164 166 210 234 253 260 266 272 268 276 283 287 290 294 299 311 308 320 322 321 313 308 293 247 231 240 275 305
57 81 100 110 115 122 124 123 124 119 111 104 108 113 127 155 186 226 242 309 281 276 301 282 261 246 290 298 293 293 305 317 317 322 324 323 322 312 299 258 220 224 246 273 300
53 69 106 119 129 134 127 126 125 121 107 89 77 80 109 115 92 75 51 275 304 303 299 256 204 255 295 281 293 312 320 327 320 325 321 327 315 298 243 216 225 235 255 274 287
43 52 66 118 142 143 148 152 142 139 120 88 87 72 144 190 135 43 359 309 291 275 261 198 249 293 289 281 333 322 323 321 323 323 312 319 288 257 241 241 241 251 274 280 288
35 41 53 70 118 157 164 168 172 169 37 248 82 91 136 175 180 245 6 347 327 252 222 234 269 288 226 304 341 320 325 324 314 309 309 310 275 255 240 238 244 259 270 276 283
26 40 44 46 56 81 148 197 213 182 244 183 154 89 180 174 184 168 341 337 323 248 218 281 297 231 243 262 335 340 334 320 311 309 35 24 303 272 250 252 251 258 265 274 293
16 20 24 33 39 31 15 219 210 222 195 185 213 279 215 216 247 241 318 309 308 282 230 296 259 242 249 313 339 339 342 327 346 353 231 330 296 255 265 249 250 258 267 279 296
348 359 6 15 13 15 4 306 236 203 167 203 286 284 237 230 275 305 315 310 300 257 291 260 250 253 266 315 325 338 10 6 243 277 292 284 245 256 268 250 257 262 268 276 292
323 329 337 335 346 3 0 301 283 250 224 268 303 272 211 222 306 308 310 303 215 282 292 290 240 270 294 311 331 324 334 295 255 288 305 255 271 277 263 255 261 264 267 274 286
310 308 314 311 312 326 332 312 279 269 270 291 294 258 252 277 299 291 289 257 267 271 295 264 280 268 282 295 303 299 283 291 250 346 274 270 273 256 274 270 272 269 270 279 285
293 295 292 290 293 307 314 307 305 299 296 291 280 278 281 293 288 291 260 275 283 287 286 296 274 256 287 283 292 289 263 238 221 232 205 283 245 248 293 295 283 281 280 280 284
293 288 283 278 286 284 289 294 293 291 285 291 293 291 290 297 297 289 257 265 277 293 298 294 281 282 285 291 285 270 265 259 218 229 240 266 279 279 269 273 281 287 283 278 279
290 290 284 277 272 276 286 283 276 272 270 280 279 288 294 294 289 276 281 285 286 291 291 297 275 306 290 288 296 268 258 265 275 264 248 244 260 264 270 281 287 291 281 280 281
290 282 287 282 282 281 281 279 265 268 269 267 270 277 280 279 274 264 270 272 276 285 284 286 274 268 261 282 288 285 281 278 271 261 267 253 277 274 286 286 284 284 285 286 289
285 287 277 269 272 275 282 274 277 280 275 270 273 275 275 272 276 273 269 275 279 281 282 279 273 280 284 286 287 286 282 278 270 271 259 284 274 289 290 293 287 287 292 295 298
278 277 278 275 273 272 269 276 278 277 274 275 273 271 269 272 275 277 280 282 280 282 282 279 277 285 286 287 284 282 280 279 276 274 271 279 288 298 284 286 289 289 291 291 290
274 272 273 276 276 275 271 267 265 272 278 278 279 279 278 277 277 276 280 281 282 283 283 278 273 277 280 291 289 283 291 280 279 277 282 279 293 286 290 291 290 289 289 285 272
Height
3072 3073 3075 3076 3077 3079 3083 3086 3089 3094 3098 3103 3106 3114 3121 3125 3130 3136 3140 3144 3146 3149 3151 3153 3155 3155 3157 3158 3160 3161 3163 3162 3162 3162 3162 3162 3163 3163 3163 3162 3160 3159 3158 3157 3156
3078 3077 3078 3080 3083 3085 3087 3089 3095 3099 3103 3105 3111 3118 3124 3127 3132 3137 3141 3143 3146 3148 3150 3152 3153 3155 3156 3158 3159 3160 3160 3160 3160 3160 3160 3160 3161 3161 3160 3158 3157 3156 3154 3153 3152
3085 3084 3084 3085 3087 3090 3092 3095 3100 3103 3108 3109 3117 3122 3126 3129 3135 3138 3140 3143 3145 3147 3149 3152 3153 3154 3156 3156 3157 3157 3158 3158 3158 3158 3159 3158 3158 3157 3157 3156 3154 3153 3152 3151 3149
3094 3093 3092 3093 3094 3095 3098 3102 3104 3110 3110 3115 3121 3125 3128 3132 3138 3138 3140 3143 3145 3147 3150 3151 3152 3153 3154 3154 3155 3156 3156 3156 3157 3157 3157 3156 3155 3154 3153 3152 3151 3150 3150 3149 3147
3100 3099 3100 3100 3100 3102 3104 3107 3111 3113 3114 3119 3124 3128 3131 3134 3136 3138 3140 3142 3145 3147 3149 3150 3151 3152 3152 3152 3153 3154 3155 3155 3155 3154 3154 3153 3152 3151 3150 3149 3147 3146 3146 3145 3144
3107 3106 3106 3106 3107 3109 3111 3112 3114 3116 3119 3123 3127 3130 3133 3136 3136 3139 3141 3143 3145 3147 3148 3149 3150 3150 3150 3151 3152 3152 3152 3152 3152 3152 3151 3150 3149 3147 3147 3146 3145 3144 3143 3142 3141
3112 3112 3112 3113 3113 3114 3115 3116 3118 3121 3124 3127 3130 3132 3135 3137 3137 3139 3141 3143 3144 3146 3147 3148 3148 3149 3149 3150 3150 3150 3151 3150 3150 3149 3149 3148 3147 3145 3144 3143 3142 3141 3140 3138 3137
3117 3116 3116 3116 3117 3117 3118 3119 3122 3125 3127 3130 3132 3134 3135 3137 3138 3140 3141 3142 3144 3145 3146 3147 3147 3147 3148 3148 3148 3148 3149 3148 3148 3147 3147 3147 3144 3142 3141 3139 3138 3137 3136 3136 3136
3120 3119 3119 3119 3119 3119 3121 3124 3126 3128 3130 3131 3134 3135 3136 3137 3138 3140 3141 3142 3143 3144 3145 3145 3146 3146 3146 3146 3146 3146 3146 3146 3146 3145 3145 3144 3142 3139 3137 3136 3134 3132 3133 3134 3134
3123 3123 3123 3124 3124 3125 3125 3127 3129 3130 3132 3133 3135 3138 3137 3138 3138 3139 3140 3141 3142 3143 3144 3144 3144 3143 3144 3144 3143 3143 3143 3144 3143 3143 3141 3139 3138 3135 3133 3132 3130 3130 3131 3132 3131
3127 3126 3126 3127 3127 3128 3129 3130 3134 3135 3133 3134 3135 3135 3136 3138 3139 3140 3140 3141 3142 3142 3142 3142 3142 3141 3141 3141 3141 3141 3141 3141 3141 3139 3137 3134 3132 3130 3127 3126 3127 3128 3129 3129 3129
3129 3129 3129 3129 3130 3131 3131 3132 3133 3136 3135 3134 3135 3136 3137 3137 3139 3139 3141 3141 3141 3140 3140 3141 3140 3140 3140 3140 3140 3139 3139 3139 3138 3136 3132 3130 3128 3125 3124 3124 3125 3126 3127 3126 3126
3132 3131 3130 3130 3131 3132 3133 3134 3134 3135 3136 3136 3136 3136 3137 3139 3138 3139 3139 3139 3139 3139 3139 3139 3140 3139 3139 3139 3138 3138 3137 3136 3135 3132 3129 3126 3124 3122 3123 3123 3123 3124 3124 3124 3123
3134 3133 3132 3131 3133 3133 3134 3135 3136 3136 3137 3139 3137 3137 3137 3137 3139 3138 3138 3140 3138 3138 3138 3139 3138 3138 3138 3138 3137 3136 3135 3133 3130 3129 3127 3125 3124 3120 3120 3120 3121 3121 3121 3120 3120
3137 3135 3134 3133 3133 3133 3135 3135 3135 3137 3138 3140 3138 3137 3136 3138 3139 3138 3138 3137 3137 3137 3139 3138 3137 3136 3136 3136 3135 3135 3132 3129 3126 3124 3123 3122 3123 3117 3117 3117 3119 3118 3117 3117 3117
3139 3138 3136 3136 3135 3135 3134 3135 3136 3138 3135 3137 3137 3137 3137 3137 3137 3137 3137 3137 3136 3136 3136 3136 3135 3135 3134 3134 3133 3131 3129 3125 3122 3121 3121 3122 3124 3116 3116 3116 3116 3115 3114 3114 3114
3139 3139 3138 3137 3137 3136 3135 3135 3137 3135 3137 3137 3136 3136 3136 3136 3136 3136 3136 3135 3135 3135 3134 3134 3133 3133 3133 3132 3131 3130 3128 3125 3124 3122 3123 3122 3122 3114 3113 3112 3112 3112 3112 3112 3111
3138 3138 3137 3136 3136 3136 3135 3136 3135 3134 3134 3135 3135 3135 3134 3135 3135 3135 3134 3133 3132 3132 3132 3131 3131 3131 3131 3131 3130 3128 3128 3129 3133 3129 3123 3120 3115 3111 3109 3109 3109 3109 3109 3108 3107
3136 3135 3136 3136 3134 3133 3135 3134 3133 3133 3134 3134 3134 3132 3133 3133 3134 3132 3131 3130 3130 3130 3131 3129 3128 3127 3127 3127 3128 3126 3127 3128 3127 3125 3124 3115 3111 3109 3106 3106 3106 3106 3105 3105 3104
3134 3134 3133 3132 3133 3133 3132 3131 3131 3132 3132 3132 3132 3132 3131 3132 3132 3130 3128 3128 3127 3127 3126 3126 3126 3124 3124 3124 3125 3124 3126 3125 3125 3127 3123 3111 3107 3103 3103 3102 3103 3102 3101 3101 3099
3131 3131 3130 3130 3130 3130 3130 3129 3128 3128 3129 3130 3129 3129 3129 3129 3129 3129 3128 3127 3125 3125 3125 3124 3124 3123 3122 3121 3120 3121 3121 3121 3123 3122 3119 3116 3102 3101 3101 3100 3099 3099 3098 3097 3094
3128 3129 3128 3128 3130 3128 3128 3127 3127 3125 3125 3126 3125 3125 3125 3125 3125 3125 3125 3124 3123 3122 3122 3121 3120 3119 3119 3117 3116 3116 3117 3118 3118 3119 3117 3114 3096 3098 3097 3096 3095 3095 3094 3092 3090
3124 3124 3124 3124 3125 3124 3124 3124 3123 3122 3121 3121 3122 3123 3122 3122 3123 3121 3120 3120 3120 3120 3119 3118 3117 3116 3114 3116 3114 3113 3113 3114 3114 3113 3107 3109 3095 3094 3095 3094 3093 3091 3088 3085 3082
3121 3120 3121 3119 3120 3120 3120 3120 3120 3120 3118 3117 3117 3117 3117 3117 3117 3116 3115 3115 3115 3115 3115 3114 3113 3114 3114 3114 3113 3111 3110 3109 3109 3106 3098 3089 3081 3090 3091 3089 3087 3083 3078 3073 3070
3115 3116 3114 3114 3114 3115 3116 3117 3116 3117 3115 3114 3113 3112 3112 3112 3111 3112 3113 3112 3111 3110 3111 3110 3105 3105 3103 3104 3102 3099 3100 3101 3097 3095 3094 3069 3081 3080 3081 3077 3073 3070 3068 3067 3063
3108 3108 3109 3108 3109 3108 3106 3110 3110 3110 3111 3111 3109 3106 3106 3107 3108 3107 3106 3107 3106 3106 3105 3102 3099 3096 3091 3094 3092 3085 3086 3084 3083 3082 3077 3074 3067 3075 3069 3068 3066 3063 3062 3061 3058
3099 3101 3100 3102 3103 3103 3102 3101 3100 3103 3105 3106 3106 3104 3102 3102 3101 3100 3100 3100 3101 3100 3100 3097 3095 3092 3082 3083 3082 3076 3072 3072 3072 3071 3071 3068 3068 3062 3062 3061 3059 3057 3054 3052 3051